Location: Haut Kerinec
(48.0623°N, 4.4081°W)
Time: 18:24:04
(UTC+00:00)

Cosmos 1340 Rocket - Pass Details

Date: 01 June 2020
Orbit: 530 x 558 km, 81.2° (Epoch: 06 July)

Event Time Altitude Azimuth Distance (km) Brightness Sun altitude
Rises 23:31:10 0° 346° (NNW) 2,741 8.1 -19.0°
Reaches altitude 10° 23:33:21 10° 344° (NNW) 1,846 6.7 -19.1°
Maximum altitude 23:37:24 70° 262° (W) 598 2.9 -19.2°
Enters shadow 23:38:23 48° 197° (SSW) 733 3.0 -19.2°
